Volver al catálogo

COSMOS 2402

GLONASS

ActivoNavegaciónMEO
NORAD 28113·PAYLOAD·🇷🇺 Russia

Lanzado Dec 10, 2003 desde Baikonur Cosmodrome

Loading…

Próximos Pases (próximas 24 horas)

TLE

ActualizadoSource: Space-Track

Época: Sep 14, 2026, 10:00 UTC

1 28113U 03056B   26257.41695779 -.00000026  00000-0  00000-0 0  9998
2 28113  64.3338  59.0606 0051983  73.0866 286.3321  2.13104972177140

Sigue COSMOS 2402 en tiempo real con AllMySat

Download on the App Store